| time (UTC) | temp F | wind direction | speed knots | gust knots | rain 1hr in | rain 24hr in | rain mn in | humidity % | barometer mb |
| 20260507191943 | 57 | 22 | 0.0 | 0.0 | 0.00 | 0.04 | 0.00 | 68 | 1013.5 |
| 20260507191445 | 58 | 22 | 0.0 | 0.9 | 0.00 | 0.04 | 0.00 | 66 | 1013.3 |
| 20260507190942 | 59 | 225 | 0.0 | 0.0 | 0.00 | 0.04 | 0.00 | 65 | 1013.2 |
| 20260507190445 | 59 | 225 | 0.0 | 0.0 | 0.00 | 0.04 | 0.00 | 64 | 1013.1 |
| 20260507185942 | 59 | 225 | 0.0 | 0.0 | 0.00 | 0.06 | 0.00 | 64 | 1012.9 |
| 20260507185444 | 60 | 202 | 0.0 | 0.0 | 0.00 | 0.06 | 0.00 | 63 | 1012.8 |
| 20260507184941 | 60 | 225 | 0.0 | 0.0 | 0.00 | 0.06 | 0.00 | 62 | 1012.8 |
| 20260507184443 | 60 | 202 | 0.0 | 0.0 | 0.00 | 0.06 | 0.00 | 61 | 1012.7 |
| 20260507183941 | 61 | 202 | 0.0 | 0.0 | 0.00 | 0.06 | 0.00 | 61 | 1012.6 |
| 20260507182940 | 61 | 180 | 0.0 | 0.0 | 0.00 | 0.06 | 0.00 | 60 | 1012.5 |
| 20260507181940 | 62 | 292 | 0.0 | 0.0 | 0.00 | 0.06 | 0.00 | 60 | 1012.5 |
| 20260507181200 | 63 | 247 | 0.9 | 0.9 | 0.00 | 0.06 | 0.00 | 59 | 1012.4 |
| 20260507180939 | 63 | 247 | 0.9 | 0.9 | 0.00 | 0.06 | 0.00 | 59 | 1012.4 |
| 20260507180441 | 63 | 315 | 0.9 | 0.9 | 0.00 | 0.06 | 0.00 | 59 | 1012.4 |
| 20260507180205 | 63 | 225 | 0.0 | 1.7 | 0.00 | 0.06 | 0.00 | 58 | 1012.4 |
| 20260507175938 | 63 | 225 | 0.0 | 1.7 | 0.00 | 0.06 | 0.00 | 58 | 1012.4 |
| 20260507175441 | 63 | 292 | 1.7 | 1.7 | 0.00 | 0.06 | 0.00 | 58 | 1012.3 |
| 20260507174938 | 64 | 202 | 0.9 | 3.5 | 0.00 | 0.06 | 0.00 | 58 | 1012.3 |
| 20260507174442 | 64 | 270 | 1.7 | 2.6 | 0.00 | 0.06 | 0.00 | 58 | 1012.2 |
| 20260507173937 | 64 | 135 | 2.6 | 2.6 | 0.00 | 0.06 | 0.00 | 57 | 1012.2 |
| 20260507172937 | 64 | 270 | 4.3 | 4.3 | 0.00 | 0.06 | 0.00 | 57 | 1012.0 |
| 20260507172439 | 64 | 225 | 0.9 | 1.7 | 0.00 | 0.06 | 0.00 | 58 | 1011.9 |
| 20260507171936 | 64 | 292 | 1.7 | 5.2 | 0.00 | 0.06 | 0.00 | 59 | 1011.8 |
| 20260507171437 | 64 | 180 | 5.2 | 5.2 | 0.00 | 0.06 | 0.00 | 61 | 1011.8 |
| 20260507170936 | 65 | 270 | 0.0 | 2.6 | 0.00 | 0.06 | 0.00 | 63 | 1011.7 |
| 20260507170439 | 65 | 247 | 0.9 | 0.9 | 0.00 | 0.06 | 0.00 | 63 | 1011.7 |
| 20260507165935 | 65 | 225 | 0.9 | 0.9 | 0.00 | 0.06 | 0.00 | 62 | 1011.6 |
| 20260507164934 | 66 | 337 | 0.0 | 5.2 | 0.00 | 0.06 | 0.00 | 62 | 1011.7 |
| 20260507164444 | 66 | 202 | 1.7 | 6.1 | 0.00 | 0.06 | 0.00 | 61 | 1011.6 |
| 20260507163934 | 67 | 202 | 6.1 | 6.1 | 0.00 | 0.06 | 0.00 | 60 | 1011.2 |
| 20260507163435 | 67 | 225 | 1.7 | 5.2 | 0.00 | 0.06 | 0.00 | 59 | 1011.2 |
| 20260507162933 | 68 | 247 | 2.6 | 2.6 | 0.00 | 0.06 | 0.00 | 58 | 1011.2 |
| 20260507162437 | 68 | 292 | 1.7 | 1.7 | 0.00 | 0.06 | 0.00 | 57 | 1011.2 |
| 20260507161933 | 69 | 225 | 0.9 | 2.6 | 0.00 | 0.06 | 0.00 | 56 | 1011.3 |
| 20260507161436 | 70 | 315 | 0.0 | 5.2 | 0.00 | 0.06 | 0.00 | 56 | 1011.2 |
| 20260507160932 | 70 | 225 | 5.2 | 5.2 | 0.00 | 0.06 | 0.00 | 55 | 1011.2 |
| 20260507155932 | 71 | 247 | 2.6 | 2.6 | 0.00 | 0.06 | 0.00 | 53 | 1011.3 |
| 20260507154931 | 71 | 315 | 1.7 | 1.7 | 0.00 | 0.06 | 0.00 | 52 | 1011.2 |
| 20260507153931 | 72 | 247 | 0.0 | 1.7 | 0.00 | 0.06 | 0.00 | 50 | 1010.9 |
| 20260507153433 | 72 | 247 | 1.7 | 1.7 | 0.00 | 0.06 | 0.00 | 48 | 1010.8 |
| 20260507152930 | 72 | 247 | 0.9 | 1.7 | 0.00 | 0.06 | 0.00 | 48 | 1010.7 |
| 20260507152431 | 73 | 247 | 0.0 | 4.3 | 0.00 | 0.06 | 0.00 | 48 | 1010.5 |
| 20260507151929 | 73 | 292 | 2.6 | 2.6 | 0.00 | 0.06 | 0.00 | 48 | 1010.4 |
| 20260507151431 | 72 | 292 | 1.7 | 3.5 | 0.00 | 0.06 | 0.00 | 50 | 1010.4 |
| 20260507150929 | 72 | 270 | 0.0 | 1.7 | 0.00 | 0.06 | 0.00 | 50 | 1010.3 |
| 20260507145928 | 72 | 247 | 2.6 | 2.6 | 0.00 | 0.06 | 0.00 | 48 | 1010.2 |
| 20260507145430 | 72 | 247 | 1.7 | 2.6 | 0.00 | 0.06 | 0.00 | 48 | 1010.2 |
| 20260507144928 | 72 | 247 | 2.6 | 2.6 | 0.00 | 0.06 | 0.00 | 48 | 1010.3 |
| 20260507143927 | 72 | 247 | 0.0 | 1.7 | 0.00 | 0.06 | 0.00 | 47 | 1010.2 |
| 20260507143429 | 72 | 247 | 0.0 | 7.0 | 0.00 | 0.06 | 0.00 | 48 | 1010.3 |
| 20260507142926 | 73 | 202 | 7.0 | 7.0 | 0.00 | 0.06 | 0.00 | 47 | 1010.2 |
| 20260507142429 | 74 | 247 | 0.0 | 0.9 | 0.00 | 0.06 | 0.00 | 47 | 1010.3 |
| 20260507141926 | 74 | 315 | 0.0 | 3.5 | 0.00 | 0.06 | 0.00 | 46 | 1010.2 |
| 20260507141427 | 74 | 315 | 0.9 | 5.2 | 0.00 | 0.06 | 0.00 | 45 | 1010.2 |
| 20260507140925 | 74 | 270 | 5.2 | 5.2 | 0.00 | 0.06 | 0.00 | 44 | 1010.3 |
| 20260507140427 | 75 | 157 | 0.0 | 1.7 | 0.00 | 0.06 | 0.00 | 45 | 1010.2 |
| 20260507135925 | 75 | 202 | 1.7 | 1.7 | 0.00 | 0.08 | 0.00 | 44 | 1010.3 |
| 20260507135427 | 74 | 225 | 0.0 | 2.6 | 0.00 | 0.08 | 0.00 | 45 | 1010.4 |
| 20260507134924 | 75 | 337 | 0.0 | 4.3 | 0.00 | 0.08 | 0.00 | 44 | 1010.3 |
| 20260507133924 | 75 | 315 | 1.7 | 1.7 | 0.00 | 0.08 | 0.00 | 46 | 1010.3 |
| 20260507132923 | 75 | 270 | 0.0 | 1.7 | 0.00 | 0.08 | 0.00 | 45 | 1010.5 |
| 20260507132650 | 75 | 225 | 1.7 | 3.5 | 0.00 | 0.08 | 0.00 | 45 | 1010.4 |
| 20260507132425 | 75 | 225 | 1.7 | 3.5 | 0.00 | 0.08 | 0.00 | 45 | 1010.4 |
| 20260507131922 | 75 | 315 | 1.7 | 1.7 | 0.00 | 0.08 | 0.00 | 47 | 1010.5 |
| 20260507131425 | 75 | 247 | 0.9 | 0.9 | 0.00 | 0.08 | 0.00 | 47 | 1010.7 |
| 20260507130922 | 75 | 315 | 0.9 | 7.0 | 0.00 | 0.08 | 0.00 | 48 | 1010.7 |
| 20260507130423 | 75 | 202 | 0.0 | 3.5 | 0.00 | 0.08 | 0.00 | 47 | 1010.8 |
| 20260507125921 | 75 | 292 | 3.5 | 3.5 | 0.00 | 0.08 | 0.00 | 47 | 1010.7 |
| 20260507125425 | 74 | 157 | 0.9 | 1.7 | 0.00 | 0.08 | 0.00 | 47 | 1010.8 |
| 20260507124921 | 75 | 180 | 1.7 | 3.5 | 0.00 | 0.08 | 0.00 | 49 | 1011.0 |
| 20260507124423 | 74 | 292 | 0.0 | 1.7 | 0.00 | 0.08 | 0.00 | 50 | 1011.0 |
| 20260507123920 | 74 | 225 | 0.0 | 1.7 | 0.00 | 0.08 | 0.00 | 49 | 1011.0 |
| 20260507123424 | 74 | 202 | 1.7 | 1.7 | 0.00 | 0.08 | 0.00 | 50 | 1011.0 |
| 20260507122920 | 74 | 202 | 1.7 | 1.7 | 0.00 | 0.08 | 0.00 | 51 | 1011.1 |
| 20260507122423 | 74 | 247 | 1.7 | 1.7 | 0.00 | 0.08 | 0.00 | 52 | 1011.1 |
| 20260507121919 | 73 | 315 | 0.0 | 2.6 | 0.00 | 0.08 | 0.00 | 52 | 1011.1 |
| 20260507121421 | 73 | 45 | 1.7 | 1.7 | 0.00 | 0.08 | 0.00 | 52 | 1011.1 |
| 20260507120918 | 73 | 202 | 0.9 | 0.9 | 0.00 | 0.08 | 0.00 | 54 | 1011.0 |
| 20260507120421 | 73 | 247 | 0.0 | 0.0 | 0.00 | 0.08 | 0.00 | 53 | 1011.1 |
| 20260507115918 | 73 | 292 | 0.0 | 0.0 | 0.00 | 0.08 | 0.00 | 53 | 1011.1 |
| 20260507114917 | 73 | 135 | 0.0 | 1.7 | 0.00 | 0.08 | 0.00 | 53 | 1011.4 |
| 20260507114420 | 73 | 225 | 1.7 | 1.7 | 0.00 | 0.08 | 0.00 | 54 | 1011.3 |
| 20260507113917 | 73 | 315 | 0.0 | 1.7 | 0.00 | 0.08 | 0.00 | 56 | 1011.6 |
| 20260507112916 | 72 | 225 | 1.7 | 1.7 | 0.00 | 0.08 | 0.00 | 54 | 1011.5 |
| 20260507111916 | 72 | 225 | 0.0 | 0.9 | 0.00 | 0.08 | 0.00 | 59 | 1011.5 |
| 20260507111416 | 71 | 315 | 0.0 | 0.0 | 0.00 | 0.08 | 0.00 | 59 | 1011.6 |
| 20260507110915 | 71 | 337 | 0.0 | 4.3 | 0.00 | 0.08 | 0.00 | 60 | 1011.7 |
| 20260507105915 | 70 | 247 | 0.9 | 0.9 | 0.00 | 0.08 | 0.00 | 61 | 1011.6 |
| 20260507105415 | 70 | 225 | 0.9 | 0.9 | 0.00 | 0.08 | 0.00 | 60 | 1011.7 |
| 20260507104914 | 70 | 180 | 0.0 | 0.0 | 0.00 | 0.08 | 0.00 | 62 | 1011.7 |
| 20260507103913 | 70 | 157 | 0.9 | 7.0 | 0.00 | 0.08 | 0.00 | 62 | 1011.8 |
| 20260507103414 | 69 | 0 | 0.0 | 1.7 | 0.00 | 0.08 | 0.00 | 63 | 1011.9 |
| 20260507102913 | 69 | 112 | 0.9 | 0.9 | 0.00 | 0.08 | 0.00 | 64 | 1012.0 |
| 20260507102415 | 69 | 292 | 0.0 | 0.9 | 0.00 | 0.08 | 0.00 | 64 | 1011.9 |
| 20260507101912 | 69 | 157 | 0.9 | 3.5 | 0.00 | 0.08 | 0.00 | 64 | 1012.0 |
| 20260507101416 | 69 | 202 | 2.6 | 5.2 | 0.00 | 0.08 | 0.00 | 65 | 1012.0 |
| 20260507100912 | 69 | 270 | 0.0 | 0.0 | 0.00 | 0.08 | 0.00 | 69 | 1012.0 |
| 20260507100414 | 68 | 180 | 0.0 | 0.9 | 0.00 | 0.08 | 0.00 | 68 | 1012.0 |
| 20260507095911 | 67 | 315 | 0.0 | 0.9 | 0.00 | 0.10 | 0.00 | 69 | 1012.1 |
| 20260507095413 | 67 | 247 | 0.9 | 0.9 | 0.00 | 0.10 | 0.00 | 69 | 1012.0 |
| 20260507094911 | 67 | 157 | 0.0 | 0.0 | 0.00 | 0.10 | 0.00 | 68 | 1012.0 |
| 20260507094413 | 67 | 112 | 0.0 | 0.0 | 0.00 | 0.10 | 0.00 | 69 | 1012.0 |
| 20260507093910 | 67 | 292 | 0.0 | 0.9 | 0.00 | 0.10 | 0.00 | 69 | 1012.2 |
| 20260507093412 | 68 | 157 | 0.9 | 0.9 | 0.00 | 0.10 | 0.00 | 70 | 1012.2 |
| 20260507092909 | 68 | 292 | 0.0 | 0.0 | 0.00 | 0.10 | 0.00 | 70 | 1012.1 |
| 20260507091909 | 68 | 315 | 0.0 | 0.0 | 0.00 | 0.10 | 0.00 | 72 | 1012.1 |
| 20260507091410 | 67 | 315 | 0.0 | 2.6 | 0.00 | 0.10 | 0.00 | 72 | 1012.1 |
| 20260507090908 | 67 | 90 | 0.9 | 2.6 | 0.00 | 0.10 | 0.00 | 71 | 1012.2 |
| 20260507090411 | 67 | 135 | 0.9 | 1.7 | 0.00 | 0.10 | 0.00 | 71 | 1012.3 |
| 20260507085908 | 67 | 337 | 0.0 | 0.0 | 0.00 | 0.16 | 0.00 | 73 | 1012.2 |
| 20260507085408 | 66 | 292 | 0.0 | 0.0 | 0.00 | 0.16 | 0.00 | 75 | 1012.2 |
| 20260507084907 | 66 | 90 | 0.0 | 0.0 | 0.00 | 0.16 | 0.00 | 74 | 1012.4 |
| 20260507084409 | 66 | 135 | 0.0 | 0.0 | 0.00 | 0.16 | 0.00 | 75 | 1012.3 |
| 20260507083907 | 65 | 90 | 0.0 | 0.0 | 0.00 | 0.16 | 0.00 | 76 | 1012.3 |
| 20260507083409 | 65 | 157 | 0.0 | 0.9 | 0.00 | 0.16 | 0.00 | 77 | 1012.3 |
| 20260507082906 | 65 | 157 | 0.9 | 2.6 | 0.00 | 0.16 | 0.00 | 77 | 1012.3 |
| 20260507082407 | 65 | 135 | 2.6 | 2.6 | 0.00 | 0.16 | 0.00 | 77 | 1012.4 |
| 20260507081905 | 64 | 112 | 0.0 | 0.0 | 0.00 | 0.16 | 0.00 | 79 | 1012.3 |
| 20260507080905 | 62 | 157 | 0.0 | 1.7 | 0.00 | 0.16 | 0.00 | 82 | 1012.4 |
| 20260507075904 | 62 | 202 | 0.0 | 1.7 | 0.00 | 0.16 | 0.00 | 83 | 1012.5 |
| 20260507075408 | 62 | 135 | 0.0 | 0.9 | 0.00 | 0.16 | 0.00 | 85 | 1012.5 |
| 20260507074904 | 62 | 202 | 0.9 | 1.7 | 0.00 | 0.16 | 0.00 | 86 | 1012.3 |
| 20260507074406 | 61 | 157 | 1.7 | 1.7 | 0.00 | 0.16 | 0.00 | 87 | 1012.4 |
| 20260507074133 | 61 | 157 | 0.0 | 0.0 | 0.00 | 0.16 | 0.00 | 89 | 1012.4 |
| 20260507073903 | 61 | 157 | 0.0 | 0.0 | 0.00 | 0.16 | 0.00 | 89 | 1012.4 |
| 20260507073405 | 60 | 157 | 0.0 | 0.9 | 0.00 | 0.16 | 0.00 | 89 | 1012.3 |
| 20260507072903 | 59 | 157 | 0.9 | 1.7 | 0.00 | 0.16 | 0.00 | 90 | 1012.4 |
| 20260507072405 | 59 | 202 | 0.9 | 0.9 | 0.00 | 0.16 | 0.00 | 91 | 1012.4 |
| 20260507071902 | 58 | 112 | 0.9 | 0.9 | 0.00 | 0.16 | 0.00 | 92 | 1012.4 |
| 20260507070901 | 57 | 135 | 0.0 | 0.0 | 0.00 | 0.16 | 0.00 | 92 | 1012.4 |
| 20260507070403 | 56 | 135 | 0.0 | 0.0 | 0.00 | 0.16 | 0.00 | 92 | 1012.3 |
| 20260507065901 | 56 | 315 | 0.0 | 0.0 | 0.00 | 0.16 | 0.00 | 92 | 1012.3 |
| 20260507064900 | 55 | 22 | 0.9 | 0.9 | 0.00 | 0.16 | 0.00 | 93 | 1012.2 |
| 20260507064402 | 55 | 112 | 0.0 | 1.7 | 0.00 | 0.16 | 0.00 | 93 | 1012.1 |
| 20260507063900 | 55 | 0 | 0.0 | 0.0 | 0.00 | 0.16 | 0.00 | 93 | 1012.2 |
| 20260507063618 | 54 | 337 | 0.0 | 0.0 | 0.00 | 0.16 | 0.00 | 93 | 1012.2 |
| 20260507063400 | 54 | 337 | 0.0 | 0.0 | 0.00 | 0.16 | 0.00 | 93 | 1012.2 |
| 20260507062859 | 54 | 0 | 0.0 | 0.0 | 0.00 | 0.16 | 0.00 | 93 | 1012.3 |
| 20260507062400 | 54 | 135 | 0.0 | 0.0 | 0.00 | 0.16 | 0.00 | 93 | 1012.2 |
| 20260507061859 | 54 | 135 | 0.0 | 0.0 | 0.00 | 0.16 | 0.00 | 93 | 1012.1 |
| 20260507060858 | 53 | 22 | 0.0 | 0.0 | 0.00 | 0.16 | 0.00 | 93 | 1012.0 |
| 20260507060400 | 53 | 112 | 0.0 | 0.0 | 0.00 | 0.16 | 0.00 | 93 | 1011.9 |
| 20260507055857 | 53 | 22 | 0.0 | 0.0 | 0.00 | 0.16 | 0.00 | 93 | 1011.8 |
| 20260507055358 | 53 | 22 | 0.0 | 0.0 | 0.00 | 0.16 | 0.00 | 94 | 1011.9 |
| 20260507054857 | 53 | 22 | 0.0 | 0.0 | 0.00 | 0.16 | 0.00 | 94 | 1011.8 |
| 20260507053856 | 52 | 22 | 0.0 | 0.0 | 0.00 | 0.16 | 0.00 | 94 | 1011.8 |
| 20260507053358 | 52 | 67 | 0.0 | 0.0 | 0.00 | 0.16 | 0.00 | 94 | 1011.6 |
| 20260507052856 | 52 | 157 | 0.0 | 0.0 | 0.00 | 0.16 | 0.00 | 94 | 1011.7 |
| 20260507051855 | 52 | 157 | 0.0 | 0.0 | 0.00 | 0.16 | 0.00 | 93 | 1011.7 |
| 20260507050855 | 51 | 202 | 0.0 | 0.0 | 0.00 | 0.16 | 0.00 | 93 | 1011.5 |
| 20260507050355 | 51 | 180 | 0.0 | 0.0 | 0.00 | 0.16 | 0.00 | 93 | 1011.3 |
| 20260507045854 | 51 | 135 | 0.0 | 0.0 | 0.00 | 0.16 | 0.00 | 93 | 1011.3 |
| 20260507045356 | 51 | 112 | 0.0 | 0.0 | 0.00 | 0.16 | 0.00 | 93 | 1011.4 |
| 20260507044853 | 51 | 67 | 0.0 | 0.0 | 0.00 | 0.16 | 0.00 | 93 | 1011.2 |
| 20260507044355 | 51 | 67 | 0.0 | 0.0 | 0.00 | 0.16 | 0.00 | 93 | 1011.2 |
| 20260507044118 | 51 | 67 | 0.0 | 0.0 | 0.00 | 0.16 | 0.00 | 93 | 1011.1 |
| 20260507043853 | 51 | 67 | 0.0 | 0.0 | 0.00 | 0.16 | 0.00 | 93 | 1011.1 |
| 20260507043355 | 50 | 67 | 0.0 | 0.0 | 0.00 | 0.16 | 0.00 | 93 | 1011.0 |
| 20260507042852 | 50 | 22 | 0.0 | 0.0 | 0.00 | 0.16 | 0.00 | 93 | 1011.1 |
| 20260507042354 | 50 | 90 | 0.0 | 0.0 | 0.02 | 0.16 | 0.00 | 93 | 1011.0 |
| 20260507041852 | 50 | 90 | 0.0 | 0.0 | 0.02 | 0.16 | 0.00 | 93 | 1011.0 |
| 20260507041355 | 50 | 22 | 0.0 | 0.0 | 0.02 | 0.16 | 0.00 | 93 | 1011.0 |
| 20260507040851 | 50 | 315 | 0.0 | 0.0 | 0.02 | 0.16 | 0.00 | 93 | 1011.0 |
| 20260507040353 | 50 | 22 | 0.0 | 0.0 | 0.02 | 0.16 | 0.00 | 93 | 1010.9 |
| 20260507035851 | 51 | 22 | 0.0 | 0.0 | 0.02 | 0.16 | 0.00 | 93 | 1010.9 |
| 20260507034850 | 51 | 22 | 0.0 | 0.0 | 0.02 | 0.16 | 0.00 | 93 | 1010.9 |
| 20260507034356 | 51 | 22 | 0.0 | 0.0 | 0.02 | 0.16 | 0.00 | 93 | 1010.8 |
| 20260507033850 | 51 | 157 | 0.0 | 0.0 | 0.02 | 0.16 | 0.00 | 93 | 1010.8 |
| 20260507033353 | 51 | 157 | 0.0 | 0.0 | 0.02 | 0.16 | 0.00 | 93 | 1010.9 |
| 20260507032849 | 51 | 45 | 0.0 | 0.0 | 0.02 | 0.16 | 0.00 | 93 | 1010.9 |
| 20260507032353 | 51 | 0 | 0.0 | 0.0 | 0.00 | 0.14 | 0.00 | 93 | 1010.7 |
| 20260507031848 | 51 | 180 | 0.0 | 0.0 | 0.00 | 0.14 | 0.00 | 93 | 1010.7 |
| 20260507030848 | 51 | 247 | 0.0 | 0.0 | 0.00 | 0.14 | 0.00 | 93 | 1010.7 |
| 20260507030351 | 51 | 247 | 0.0 | 0.0 | 0.00 | 0.14 | 0.00 | 93 | 1010.8 |
| 20260507025847 | 51 | 247 | 0.0 | 0.0 | 0.00 | 0.14 | 0.00 | 93 | 1010.7 |
| 20260507024847 | 51 | 22 | 0.0 | 0.0 | 0.00 | 0.14 | 0.00 | 93 | 1010.8 |
| 20260507023846 | 51 | 22 | 0.0 | 0.0 | 0.00 | 0.14 | 0.00 | 93 | 1010.7 |
| 20260507023349 | 51 | 90 | 0.0 | 0.0 | 0.00 | 0.14 | 0.00 | 93 | 1010.8 |
| 20260507022846 | 51 | 90 | 0.0 | 0.0 | 0.00 | 0.14 | 0.00 | 93 | 1010.8 |
| 20260507022353 | 51 | 22 | 0.0 | 0.0 | 0.00 | 0.14 | 0.00 | 93 | 1010.8 |
| 20260507021845 | 51 | 22 | 0.0 | 0.0 | 0.00 | 0.14 | 0.00 | 93 | 1010.7 |
| 20260507020844 | 52 | 157 | 0.9 | 0.9 | 0.00 | 0.14 | 0.00 | 92 | 1010.5 |
| 20260507020348 | 52 | 180 | 0.0 | 0.0 | 0.00 | 0.14 | 0.00 | 92 | 1010.6 |
| 20260507015844 | 52 | 180 | 0.0 | 0.0 | 0.00 | 0.14 | 0.00 | 92 | 1010.8 |
| 20260507015345 | 51 | 180 | 0.0 | 0.0 | 0.00 | 0.14 | 0.00 | 92 | 1010.8 |
| 20260507014844 | 51 | 202 | 0.0 | 0.0 | 0.00 | 0.14 | 0.00 | 92 | 1010.7 |
| 20260507014348 | 52 | 22 | 0.0 | 0.0 | 0.00 | 0.14 | 0.00 | 92 | 1010.8 |
| 20260507013843 | 52 | 22 | 0.0 | 0.0 | 0.00 | 0.14 | 0.00 | 92 | 1010.6 |
| 20260507012842 | 52 | 22 | 0.0 | 0.0 | 0.00 | 0.14 | 0.00 | 92 | 1010.8 |
| 20260507012352 | 52 | 112 | 0.0 | 0.0 | 0.00 | 0.14 | 0.00 | 92 | 1010.7 |
| 20260507011842 | 52 | 22 | 0.0 | 0.0 | 0.00 | 0.14 | 0.00 | 92 | 1010.7 |
| 20260507011345 | 52 | 22 | 0.0 | 0.0 | 0.00 | 0.14 | 0.00 | 92 | 1010.7 |
| 20260507010841 | 53 | 22 | 0.0 | 0.0 | 0.00 | 0.14 | 0.00 | 92 | 1010.7 |
| 20260507005840 | 53 | 135 | 0.0 | 0.0 | 0.00 | 0.14 | 0.00 | 92 | 1010.7 |
| 20260507004840 | 53 | 90 | 0.0 | 0.0 | 0.00 | 0.14 | 0.00 | 92 | 1010.7 |
| 20260507003839 | 53 | 90 | 0.0 | 0.0 | 0.00 | 0.14 | 0.00 | 92 | 1010.7 |
| 20260507003346 | 53 | 112 | 0.0 | 0.0 | 0.00 | 0.14 | 0.00 | 92 | 1010.7 |
| 20260507002839 | 53 | 112 | 0.0 | 0.0 | 0.00 | 0.14 | 0.00 | 92 | 1010.9 |
| 20260507001838 | 53 | 22 | 0.0 | 0.0 | 0.00 | 0.14 | 0.00 | 92 | 1011.0 |
| 20260507001342 | 53 | 112 | 0.0 | 0.0 | 0.00 | 0.14 | 0.00 | 91 | 1010.9 |
| 20260507000838 | 53 | 22 | 0.0 | 0.0 | 0.00 | 0.14 | 0.00 | 91 | 1010.8 |
| 20260507000350 | 53 | 0 | 0.0 | 0.0 | 0.00 | 0.14 | 0.00 | 91 | 1010.9 |
| 20260506235837 | 54 | 22 | 0.0 | 0.0 | 0.00 | 0.14 | 0.00 | 91 | 1010.9 |
| 20260506235341 | 54 | 22 | 0.0 | 0.0 | 0.00 | 0.14 | 0.00 | 91 | 1010.9 |
| 20260506234836 | 54 | 67 | 0.0 | 0.0 | 0.00 | 0.14 | 0.00 | 91 | 1011.0 |
| 20260506233836 | 54 | 112 | 0.0 | 0.0 | 0.00 | 0.14 | 0.00 | 90 | 1011.1 |
| 20260506233339 | 55 | 112 | 0.0 | 0.0 | 0.00 | 0.14 | 0.00 | 90 | 1010.9 |
| 20260506232835 | 55 | 22 | 0.0 | 0.0 | 0.00 | 0.14 | 0.00 | 90 | 1010.9 |
| 20260506231835 | 55 | 315 | 0.0 | 0.0 | 0.00 | 0.14 | 0.00 | 90 | 1011.0 |
| 20260506231344 | 55 | 22 | 0.0 | 0.0 | 0.00 | 0.14 | 0.00 | 90 | 1011.1 |
| 20260506230834 | 55 | 292 | 0.0 | 0.0 | 0.00 | 0.14 | 0.00 | 89 | 1010.8 |
| 20260506225834 | 55 | 225 | 0.0 | 0.0 | 0.00 | 0.14 | 0.00 | 90 | 1011.2 |
| 20260506225336 | 55 | 202 | 0.0 | 0.0 | 0.00 | 0.14 | 0.00 | 90 | 1011.2 |
| 20260506224833 | 55 | 112 | 0.0 | 0.0 | 0.00 | 0.14 | 0.00 | 90 | 1011.1 |
| 20260506224342 | 55 | 112 | 0.0 | 0.9 | 0.00 | 0.14 | 0.00 | 90 | 1011.0 |
| 20260506223832 | 55 | 225 | 0.9 | 0.9 | 0.00 | 0.14 | 0.00 | 90 | 1011.1 |
| 20260506222917 | 55 | 292 | 0.0 | 0.9 | 0.00 | 0.14 | 0.00 | 91 | 1011.0 |
| 20260506222832 | 55 | 292 | 0.0 | 0.9 | 0.00 | 0.14 | 0.00 | 91 | 1011.0 |
| 20260506221906 | 55 | 225 | 1.7 | 1.7 | 0.00 | 0.14 | 0.00 | 91 | 1010.9 |
| 20260506221831 | 55 | 225 | 1.7 | 1.7 | 0.00 | 0.14 | 0.00 | 91 | 1010.9 |
| 20260506221333 | 55 | 202 | 0.0 | 0.0 | 0.00 | 0.14 | 0.00 | 91 | 1010.8 |
| 20260506220831 | 55 | 247 | 0.0 | 0.0 | 0.00 | 0.14 | 0.00 | 91 | 1010.8 |
| 20260506220416 | 55 | 247 | 0.0 | 0.0 | 0.00 | 0.14 | 0.00 | 91 | 1010.9 |
| 20260506220333 | 55 | 247 | 0.0 | 0.0 | 0.00 | 0.14 | 0.00 | 91 | 1010.9 |
| 20260506215830 | 56 | 180 | 0.0 | 0.0 | 0.00 | 0.14 | 0.00 | 91 | 1010.6 |
| 20260506215332 | 56 | 202 | 0.0 | 0.0 | 0.00 | 0.14 | 0.00 | 91 | 1010.6 |
| 20260506214830 | 56 | 135 | 0.0 | 0.0 | 0.00 | 0.14 | 0.00 | 91 | 1010.5 |
| 20260506214330 | 56 | 45 | 0.0 | 0.0 | 0.00 | 0.14 | 0.00 | 91 | 1010.4 |
| 20260506213829 | 56 | 135 | 0.0 | 0.0 | 0.00 | 0.14 | 0.00 | 91 | 1010.5 |
| 20260506213330 | 56 | 135 | 0.0 | 0.0 | 0.00 | 0.14 | 0.00 | 91 | 1010.7 |
| 20260506212828 | 56 | 292 | 0.0 | 0.0 | 0.00 | 0.14 | 0.00 | 91 | 1010.7 |
| 20260506212329 | 56 | 22 | 0.0 | 0.0 | 0.00 | 0.14 | 0.00 | 91 | 1010.7 |
| 20260506211828 | 57 | 22 | 0.0 | 0.0 | 0.00 | 0.14 | 0.00 | 91 | 1010.6 |
| 20260506211330 | 57 | 180 | 0.0 | 0.0 | 0.00 | 0.14 | 0.00 | 91 | 1010.6 |
| 20260506210828 | 57 | 112 | 0.0 | 0.0 | 0.00 | 0.14 | 0.00 | 91 | 1010.6 |
| 20260506210328 | 57 | 247 | 0.0 | 0.0 | 0.00 | 0.14 | 0.00 | 91 | 1010.6 |
| 20260506205827 | 57 | 315 | 0.0 | 0.0 | 0.02 | 0.14 | 0.00 | 91 | 1010.6 |
| 20260506205329 | 57 | 112 | 0.0 | 0.0 | 0.02 | 0.14 | 0.00 | 91 | 1010.3 |
| 20260506204826 | 57 | 90 | 0.0 | 0.0 | 0.02 | 0.14 | 0.00 | 91 | 1010.5 |
| 20260506204328 | 57 | 90 | 0.0 | 0.0 | 0.02 | 0.14 | 0.00 | 91 | 1010.6 |
| 20260506203826 | 57 | 0 | 0.0 | 0.9 | 0.02 | 0.14 | 0.00 | 91 | 1010.6 |
| 20260506203326 | 57 | 22 | 0.9 | 0.9 | 0.02 | 0.14 | 0.00 | 90 | 1010.2 |
| 20260506202825 | 57 | 315 | 0.0 | 0.0 | 0.02 | 0.14 | 0.00 | 90 | 1010.2 |
| 20260506202326 | 57 | 112 | 0.0 | 0.0 | 0.02 | 0.14 | 0.00 | 90 | 1010.3 |
| 20260506201824 | 57 | 135 | 0.0 | 0.0 | 0.02 | 0.14 | 0.00 | 89 | 1010.2 |
| 20260506200824 | 57 | 112 | 0.0 | 0.0 | 0.02 | 0.14 | 0.00 | 89 | 1010.2 |
| 20260506200325 | 57 | 90 | 0.0 | 0.0 | 0.04 | 0.14 | 0.00 | 89 | 1010.2 |
| 20260506195823 | 57 | 157 | 0.0 | 0.0 | 0.02 | 0.12 | 0.00 | 89 | 1010.2 |
| 20260506195324 | 57 | 225 | 0.0 | 0.0 | 0.02 | 0.12 | 0.00 | 89 | 1010.1 |
| 20260506194823 | 57 | 202 | 0.0 | 0.0 | 0.02 | 0.12 | 0.00 | 88 | 1010.1 |
| 20260506194323 | 57 | 270 | 0.0 | 0.0 | 0.02 | 0.12 | 0.00 | 88 | 1010.0 |
| 20260506193822 | 58 | 315 | 0.0 | 0.0 | 0.02 | 0.12 | 0.00 | 88 | 1009.9 |
| 20260506193323 | 58 | 315 | 0.0 | 0.0 | 0.02 | 0.12 | 0.00 | 88 | 1009.8 |
| 20260506192822 | 58 | 292 | 0.0 | 0.0 | 0.02 | 0.12 | 0.00 | 88 | 1009.8 |
| 20260506192324 | 58 | 45 | 0.0 | 0.0 | 0.02 | 0.12 | 0.00 | 88 | 1009.8 |